Change the Weather History Date:

Monday, April 14, 2014

  Actual Average Record
Temperature  
Mean Temperature 39 °F 46 °F  
Max Temperature 53 °F 64 °F 78 °F (2002)
Min Temperature 25 °F 29 °F 17 °F (1997)
Degree Days  
Heating Degree Days 26 18  
Month to date heating degree days 276 283  
Since 1 July heating degree days 5610 5813  
Cooling Degree Days 0 0  
Month to date cooling degree days 0 0  
Year to date cooling degree days 0 0  
Moisture  
Dew Point 14 °F    
Average Humidity 43    
Maximum Humidity 69    
Minimum Humidity 16    
Precipitation  
Precipitation 0.00 in 0.04 in 0.09 in (2012)
Month to date precipitation 0.43 0.54  
Year to date precipitation 1.50 3.62  
Sea Level Pressure  
Sea Level Pressure 30.16 in    
Wind  
Wind Speed 11 mph (NNW)    
Max Wind Speed 22 mph    
Max Gust Speed 36 mph    
Visibility 10 miles    
Events      
T = Trace of Precipitation, MM = Missing Value Source: NWS Daily Summary

Daily Weather History Graph

Daily Weather History Graph

Search for Another Location

Airport or City:

Trip Planner

Search our weather history database for the weather conditions in past years. The results will help you decide how hot, cold, wet, or windy it might be!

Date:

Astronomy

Apr. 14, 2014 Rise Set
Actual Time 6:41 AM MDT 7:48 PM MDT
Civil Twilight 6:14 AM MDT 8:15 PM MDT
Nautical Twilight 5:42 AM MDT 8:47 PM MDT
Astronomical Twilight 5:09 AM MDT 9:21 PM MDT
Moon 7:31 PM MDT (4/14) 6:14 AM MDT (4/14)
Length of Visible Light 14h 01m
Length of Day
13h 07m
Full, 100% of the Moon is Illuminated
Apr 14
Full
Apr 15
Full
Apr 22
Last Quarter
Apr 29
New
May 6
First Quarter

Hourly Weather History & Observations

Time (MDT) Temp. Windchill Dew Point Humidity Pressure Visibility Wind Dir Wind Speed Gust Speed Precip Events Conditions
12:53 AM 34.0 °F 24.6 °F 19.9 °F 56% 29.99 in 10.0 mi NNW 13.8 mph - N/A   Clear
1:53 AM 33.1 °F 26.9 °F 21.0 °F 61% 30.04 in 10.0 mi NNW 6.9 mph - N/A   Clear
3:53 AM 28.0 °F 24.2 °F 19.0 °F 69% 30.08 in 10.0 mi North 3.5 mph - N/A   Clear
4:53 AM 28.9 °F 22.8 °F 16.0 °F 58% 30.09 in 10.0 mi North 5.8 mph - N/A   Clear
5:53 AM 28.0 °F 20.8 °F 16.0 °F 61% 30.12 in 10.0 mi NNW 6.9 mph - N/A   Clear
6:53 AM 28.0 °F 18.1 °F 16.0 °F 61% 30.14 in 10.0 mi North 11.5 mph - N/A   Clear
7:53 AM 30.0 °F 21.7 °F 16.0 °F 56% 30.19 in 10.0 mi NNW 9.2 mph - N/A   Clear
8:53 AM 34.0 °F 23.4 °F 16.0 °F 48% 30.20 in 10.0 mi NNW 17.3 mph 24.2 mph N/A   Clear
9:53 AM 37.0 °F 26.7 °F 15.1 °F 41% 30.22 in 10.0 mi NNW 19.6 mph 27.6 mph N/A   Clear
10:53 AM 41.0 °F 32.5 °F 15.1 °F 35% 30.22 in 10.0 mi NNW 17.3 mph 24.2 mph N/A   Clear
12:53 PM 46.9 °F - 9.0 °F 21% 30.18 in 10.0 mi North 13.8 mph 19.6 mph N/A   Clear
1:53 PM 51.1 °F - 10.9 °F 20% 30.16 in 10.0 mi North 15.0 mph 24.2 mph N/A   Clear
3:53 PM 52.0 °F - 7.0 °F 16% 30.15 in 10.0 mi NW 18.4 mph 28.8 mph N/A   Clear
4:53 PM 52.0 °F - 10.9 °F 19% 30.14 in 10.0 mi NNW 13.8 mph 25.3 mph N/A   Clear
5:53 PM 51.1 °F - 12.0 °F 21% 30.15 in 10.0 mi NNW 16.1 mph 24.2 mph N/A   Clear
6:53 PM 48.9 °F - 10.9 °F 22% 30.16 in 10.0 mi NNW 15.0 mph 21.9 mph N/A   Clear
7:53 PM 45.0 °F 40.6 °F 10.0 °F 24% 30.17 in 10.0 mi NW 8.1 mph - N/A   Clear
8:53 PM 41.0 °F 35.8 °F 9.0 °F 27% 30.20 in 10.0 mi North 8.1 mph - N/A   Clear
9:53 PM 33.1 °F 28.7 °F 14.0 °F 46% 30.25 in 10.0 mi Variable 4.6 mph - N/A   Clear
10:53 PM 34.0 °F 28.8 °F 12.0 °F 40% 30.23 in 10.0 mi East 5.8 mph - N/A   Clear
11:53 PM 28.0 °F 21.7 °F 15.1 °F 58% 30.24 in 10.0 mi ENE 5.8 mph - N/A   Clear